Location: Alsip
(41.6689°N, 87.7387°W)
Time: 15:14:45
(UTC+00:00)

CZ-4B R/B - Pass Details

Date: 14 July 2020
Orbit: 702 x 803 km, 98.9° (Epoch: 12 August)

Event Time Altitude Azimuth Distance (km) Brightness Sun altitude
Rises 07:20:26 0° 21° (NNE) 3,234 8.2 -23.9°
Reaches altitude 10° 07:22:54 10° 28° (NNE) 2,287 7.0 -23.7°
Maximum altitude 07:27:38 40° 98° (E) 1,075 4.3 -23.3°
Enters shadow 07:28:58 33° 135° (SE) 1,211 4.3 -23.2°
